LXJ11WF KMCO-KATL

Flight info

Callsign LXJ11WF
Flight time 1h 3m
Altitude 32000
Route JEEMY4 PAINN SHRKS LAIRI LARZZ JJEDI4
Aircraft C750/M-SBDE3FGHRWXY/L

Departure

Time 2026-05-06 21:04
Airport Orlando International Airport (KMCO)

Arrival

Time 2026-05-06 22:07
Airport Hartsfield Jackson Atlanta International Airport (KATL)
Time Latitude Longitude Altitude Speed Heading
2026-05-06 20:45 28.42166 -81.33149 91 ft 0 kts 359°
2026-05-06 20:55 28.42175 -81.33147 91 ft 0 kts 17°
2026-05-06 20:57 28.42176 -81.33147 91 ft 0 kts 17°
2026-05-06 20:57 28.42219 -81.33131 91 ft 7 kts 18°
2026-05-06 20:57 28.42293 -81.33119 91 ft 15 kts
2026-05-06 20:57 28.42416 -81.33062 91 ft 20 kts 41°
2026-05-06 20:58 28.42538 -81.32960 91 ft 23 kts 23°
2026-05-06 20:58 28.42704 -81.32923 91 ft 24 kts
2026-05-06 20:58 28.42874 -81.32921 91 ft 23 kts
2026-05-06 20:58 28.43039 -81.32919 91 ft 23 kts
2026-05-06 20:59 28.43205 -81.32922 91 ft 23 kts 359°
2026-05-06 20:59 28.43369 -81.32924 90 ft 23 kts
2026-05-06 20:59 28.43544 -81.32926 89 ft 26 kts 359°
2026-05-06 20:59 28.43736 -81.32926 88 ft 27 kts 358°
2026-05-06 21:00 28.43928 -81.32920 88 ft 26 kts 12°
2026-05-06 21:00 28.44109 -81.32870 88 ft 26 kts 10°
2026-05-06 21:00 28.44294 -81.32865 88 ft 26 kts
2026-05-06 21:00 28.44476 -81.32864 88 ft 25 kts
2026-05-06 21:01 28.44656 -81.32865 88 ft 25 kts 357°
2026-05-06 21:01 28.44803 -81.32832 88 ft 17 kts 59°
2026-05-06 21:01 28.44813 -81.32800 88 ft 0 kts 87°
2026-05-06 21:03 28.44811 -81.32767 88 ft 9 kts 96°
2026-05-06 21:03 28.44777 -81.32707 88 ft 16 kts 175°
2026-05-06 21:04 28.44294 -81.32697 90 ft 122 kts 181°
2026-05-06 21:04 28.43185 -81.32690 441 ft 183 kts 180°
2026-05-06 21:04 28.41730 -81.32676 878 ft 226 kts 178°
2026-05-06 21:04 28.40197 -81.32664 1898 ft 217 kts 178°
2026-05-06 21:05 28.38723 -81.32913 2823 ft 216 kts 202°
2026-05-06 21:05 28.37364 -81.33733 3594 ft 229 kts 206°
2026-05-06 21:05 28.35845 -81.34534 4365 ft 244 kts 205°
2026-05-06 21:05 28.34518 -81.35802 5043 ft 260 kts 238°
2026-05-06 21:06 28.34004 -81.37798 5628 ft 272 kts 263°
2026-05-06 21:06 28.33797 -81.39980 6345 ft 279 kts 263°
2026-05-06 21:06 28.33576 -81.42172 7128 ft 281 kts 264°
2026-05-06 21:06 28.33472 -81.44460 7803 ft 286 kts 280°
2026-05-06 21:07 28.34345 -81.46474 8458 ft 284 kts 314°
2026-05-06 21:07 28.36007 -81.47678 8961 ft 284 kts 337°
2026-05-06 21:07 28.37882 -81.48375 9463 ft 286 kts 353°
2026-05-06 21:07 28.39913 -81.48339 10120 ft 297 kts
2026-05-06 21:08 28.42073 -81.48134 10868 ft 318 kts
2026-05-06 21:08 28.44351 -81.47851 11602 ft 336 kts
2026-05-06 21:08 28.46758 -81.47544 12329 ft 353 kts
2026-05-06 21:08 28.49254 -81.47224 13045 ft 355 kts
2026-05-06 21:09 28.51730 -81.46904 13733 ft 354 kts
2026-05-06 21:09 28.54212 -81.46587 14421 ft 352 kts
2026-05-06 21:09 28.56707 -81.46265 15117 ft 351 kts
2026-05-06 21:09 28.59175 -81.45946 15805 ft 349 kts
2026-05-06 21:10 28.61669 -81.45627 16503 ft 347 kts
2026-05-06 21:10 28.64190 -81.45302 17210 ft 345 kts
2026-05-06 21:10 28.66711 -81.44974 17942 ft 343 kts
2026-05-06 21:10 28.69165 -81.44659 18661 ft 343 kts
2026-05-06 21:11 28.71629 -81.44344 19400 ft 351 kts
2026-05-06 21:11 28.74167 -81.44016 20143 ft 359 kts
2026-05-06 21:11 28.76751 -81.43683 20884 ft 365 kts
2026-05-06 21:11 28.79399 -81.43342 21637 ft 371 kts
2026-05-06 21:12 28.82052 -81.42999 22379 ft 376 kts
2026-05-06 21:12 28.84760 -81.42648 23138 ft 380 kts
2026-05-06 21:12 28.87448 -81.42302 23892 ft 383 kts
2026-05-06 21:12 28.90213 -81.41943 24641 ft 385 kts
2026-05-06 21:13 28.92985 -81.41584 25385 ft 387 kts
2026-05-06 21:13 28.95783 -81.41335 26114 ft 382 kts 352°
2026-05-06 21:13 28.98468 -81.41643 26869 ft 379 kts 348°
2026-05-06 21:13 29.01115 -81.41927 27589 ft 379 kts 348°
2026-05-06 21:14 29.03792 -81.42230 28318 ft 378 kts 348°
2026-05-06 21:14 29.06492 -81.42529 29057 ft 376 kts 347°
2026-05-06 21:14 29.09106 -81.42817 29780 ft 374 kts 347°
2026-05-06 21:14 29.11743 -81.43082 30509 ft 372 kts 348°
2026-05-06 21:15 29.14323 -81.43323 31236 ft 369 kts 348°
2026-05-06 21:15 29.16948 -81.43574 31762 ft 372 kts 348°
2026-05-06 21:15 29.19601 -81.43834 31910 ft 383 kts 348°
2026-05-06 21:15 29.22313 -81.44094 32026 ft 393 kts 348°
2026-05-06 21:16 29.25134 -81.44363 32025 ft 405 kts 348°
2026-05-06 21:16 29.30984 -81.44917 32031 ft 425 kts 348°
2026-05-06 21:17 29.37056 -81.45495 32022 ft 443 kts 349°
2026-05-06 21:17 29.43383 -81.46098 32022 ft 459 kts 349°
2026-05-06 21:18 29.49964 -81.46728 32014 ft 473 kts 349°
2026-05-06 21:18 29.56638 -81.47364 32008 ft 484 kts 349°
2026-05-06 21:19 29.63564 -81.47997 32005 ft 494 kts 349°
2026-05-06 21:19 29.70656 -81.48640 31998 ft 500 kts 349°
2026-05-06 21:20 29.77711 -81.49280 32001 ft 502 kts 349°
2026-05-06 21:20 29.84788 -81.49919 32002 ft 502 kts 349°
2026-05-06 21:21 29.91639 -81.51247 32025 ft 487 kts 336°
2026-05-06 21:21 29.98268 -81.53612 31991 ft 490 kts 338°
2026-05-06 21:22 30.04849 -81.55959 31998 ft 488 kts 338°
2026-05-06 21:22 30.11366 -81.58290 31999 ft 487 kts 337°
2026-05-06 21:23 30.17923 -81.60641 32003 ft 487 kts 338°
2026-05-06 21:23 30.24535 -81.63017 31999 ft 487 kts 337°
2026-05-06 21:24 30.31087 -81.65368 31992 ft 486 kts 337°
2026-05-06 21:24 30.37619 -81.67725 32005 ft 487 kts 337°
2026-05-06 21:25 30.44223 -81.70099 31998 ft 487 kts 336°
2026-05-06 21:25 30.49591 -81.72038 32004 ft 482 kts 337°
2026-05-06 21:26 30.56010 -81.74354 31994 ft 472 kts 336°
2026-05-06 21:26 30.62303 -81.76675 31982 ft 458 kts 333°
2026-05-06 21:27 30.67965 -81.79890 31987 ft 445 kts 328°
2026-05-06 21:27 30.72333 -81.82423 31981 ft 439 kts 328°
2026-05-06 21:28 30.76299 -81.84714 31976 ft 434 kts 327°
2026-05-06 21:28 30.81799 -81.87904 31972 ft 428 kts 327°
2026-05-06 21:29 30.87203 -81.91034 31972 ft 423 kts 327°
2026-05-06 21:29 30.92536 -81.94130 31972 ft 419 kts 327°
2026-05-06 21:30 30.97814 -81.97201 31967 ft 416 kts 327°
2026-05-06 21:30 31.03045 -82.00246 31971 ft 413 kts 327°
2026-05-06 21:31 31.08210 -82.03256 31966 ft 410 kts 327°
2026-05-06 21:31 31.13439 -82.06306 31971 ft 409 kts 327°
2026-05-06 21:32 31.18571 -82.09306 31973 ft 408 kts 327°
2026-05-06 21:32 31.26253 -82.13802 31978 ft 406 kts 327°
2026-05-06 21:33 31.31373 -82.16800 31972 ft 406 kts 326°
2026-05-06 21:33 31.36490 -82.19801 31976 ft 405 kts 327°
2026-05-06 21:34 31.41578 -82.22790 31975 ft 404 kts 326°
2026-05-06 21:34 31.46701 -82.25806 31972 ft 403 kts 326°
2026-05-06 21:35 31.51797 -82.28808 31975 ft 403 kts 327°
2026-05-06 21:35 31.56867 -82.31795 31981 ft 402 kts 326°
2026-05-06 21:36 31.61949 -82.34796 31975 ft 402 kts 326°
2026-05-06 21:36 31.67036 -82.37800 31975 ft 402 kts 326°
2026-05-06 21:37 31.72078 -82.40787 31973 ft 401 kts 326°
2026-05-06 21:37 31.77130 -82.43778 31972 ft 401 kts 326°
2026-05-06 21:38 31.82186 -82.46778 31974 ft 400 kts 326°
2026-05-06 21:38 31.87165 -82.49737 31971 ft 400 kts 326°
2026-05-06 21:39 31.92195 -82.52725 31976 ft 399 kts 326°
2026-05-06 21:39 31.97043 -82.55898 31945 ft 389 kts 314°
2026-05-06 21:40 32.01162 -82.60109 31967 ft 386 kts 313°
2026-05-06 21:40 32.05275 -82.64289 31962 ft 386 kts 314°
2026-05-06 21:41 32.09434 -82.68536 31973 ft 395 kts 313°
2026-05-06 21:41 32.13655 -82.72851 31972 ft 407 kts 313°
2026-05-06 21:42 32.18066 -82.77361 31978 ft 418 kts 313°
2026-05-06 21:42 32.22584 -82.81992 31977 ft 427 kts 313°
2026-05-06 21:43 32.27195 -82.86723 31971 ft 435 kts 314°
2026-05-06 21:43 32.31815 -82.91457 31954 ft 439 kts 313°
2026-05-06 21:44 32.36481 -82.96265 31952 ft 433 kts 313°
2026-05-06 21:44 32.40955 -83.00861 31963 ft 416 kts 313°
2026-05-06 21:45 32.45284 -83.05311 31957 ft 401 kts 313°
2026-05-06 21:45 32.49449 -83.09609 31959 ft 388 kts 313°
2026-05-06 21:46 32.53495 -83.13783 31963 ft 375 kts 312°
2026-05-06 21:46 32.57406 -83.17829 31492 ft 367 kts 312°
2026-05-06 21:47 32.59368 -83.19856 30916 ft 369 kts 312°
2026-05-06 21:47 32.61307 -83.21877 30389 ft 374 kts 312°
2026-05-06 21:47 32.63316 -83.23960 29824 ft 379 kts 313°
2026-05-06 21:47 32.65357 -83.26077 29208 ft 384 kts 313°
2026-05-06 21:48 32.67400 -83.28207 28504 ft 391 kts 313°
2026-05-06 21:48 32.69479 -83.30360 27751 ft 396 kts 313°
2026-05-06 21:48 32.71577 -83.32540 27245 ft 394 kts 313°
2026-05-06 21:48 32.73668 -83.34712 26574 ft 394 kts 313°
2026-05-06 21:49 32.75728 -83.36858 25957 ft 391 kts 313°
2026-05-06 21:49 32.77789 -83.39011 25298 ft 389 kts 313°
2026-05-06 21:49 32.79854 -83.41159 24572 ft 386 kts 313°
2026-05-06 21:49 32.81864 -83.43258 23802 ft 385 kts 313°
2026-05-06 21:50 32.83909 -83.45389 23033 ft 383 kts 313°
2026-05-06 21:50 32.85916 -83.47495 22291 ft 378 kts 313°
2026-05-06 21:50 32.87886 -83.49547 21589 ft 373 kts 313°
2026-05-06 21:50 32.89855 -83.51612 20890 ft 368 kts 313°
2026-05-06 21:51 32.91781 -83.53621 20209 ft 360 kts 313°
2026-05-06 21:51 32.93616 -83.55541 19543 ft 349 kts 313°
2026-05-06 21:51 32.95497 -83.57527 18894 ft 362 kts 313°
2026-05-06 21:51 32.97413 -83.59530 18529 ft 363 kts 314°
2026-05-06 21:52 32.99338 -83.61545 17969 ft 364 kts 313°
2026-05-06 21:52 33.01185 -83.63471 17281 ft 346 kts 313°
2026-05-06 21:52 33.02971 -83.65337 16614 ft 330 kts 312°
2026-05-06 21:52 33.04676 -83.67127 16019 ft 316 kts 312°
2026-05-06 21:53 33.06300 -83.68829 15457 ft 307 kts 312°
2026-05-06 21:53 33.07890 -83.70506 14921 ft 301 kts 311°
2026-05-06 21:53 33.09449 -83.72144 14399 ft 295 kts 311°
2026-05-06 21:53 33.10999 -83.73776 14000 ft 286 kts 311°
2026-05-06 21:54 33.12471 -83.75311 13939 ft 267 kts 311°
2026-05-06 21:54 33.13891 -83.76814 13862 ft 281 kts 310°
2026-05-06 21:54 33.15432 -83.78471 13372 ft 314 kts 311°
2026-05-06 21:54 33.17115 -83.80252 12772 ft 319 kts 312°
2026-05-06 21:55 33.18799 -83.82023 12288 ft 324 kts 312°
2026-05-06 21:55 33.20424 -83.83907 12278 ft 312 kts 308°
2026-05-06 21:55 33.21992 -83.85773 11895 ft 315 kts 309°
2026-05-06 21:55 33.23559 -83.87643 11424 ft 313 kts 309°
2026-05-06 21:56 33.25092 -83.89469 10747 ft 303 kts 309°
2026-05-06 21:56 33.26586 -83.91249 10063 ft 307 kts 309°
2026-05-06 21:56 33.28128 -83.93098 9415 ft 315 kts 309°
2026-05-06 21:56 33.29684 -83.94949 8731 ft 305 kts 310°
2026-05-06 21:57 33.31176 -83.96734 8014 ft 299 kts 310°
2026-05-06 21:57 33.32623 -83.98461 7225 ft 294 kts 310°
2026-05-06 21:57 33.34051 -84.00174 6535 ft 284 kts 310°
2026-05-06 21:57 33.35406 -84.01786 6558 ft 256 kts 311°
2026-05-06 21:58 33.36955 -84.02830 6358 ft 261 kts 343°
2026-05-06 21:58 33.38795 -84.02932 6139 ft 262 kts 355°
2026-05-06 21:58 33.40722 -84.02974 5923 ft 279 kts 355°
2026-05-06 21:58 33.42719 -84.03009 5706 ft 290 kts 355°
2026-05-06 21:59 33.44728 -84.03186 5439 ft 276 kts 338°
2026-05-06 21:59 33.46429 -84.04082 5216 ft 257 kts 332°
2026-05-06 21:59 33.48052 -84.04864 4946 ft 246 kts 332°
2026-05-06 21:59 33.49649 -84.05643 4680 ft 251 kts 332°
2026-05-06 22:00 33.51356 -84.06480 4481 ft 269 kts 333°
2026-05-06 22:00 33.53173 -84.07359 4274 ft 285 kts 334°
2026-05-06 22:00 33.55084 -84.08282 4067 ft 301 kts 334°
2026-05-06 22:00 33.56995 -84.09194 3971 ft 278 kts 334°
2026-05-06 22:01 33.58713 -84.10038 3945 ft 251 kts 328°
2026-05-06 22:01 33.59924 -84.11414 3978 ft 233 kts 296°
2026-05-06 22:01 33.60711 -84.13070 3962 ft 223 kts 295°
2026-05-06 22:01 33.61478 -84.14665 3954 ft 213 kts 295°
2026-05-06 22:02 33.62222 -84.16206 3960 ft 208 kts 294°
2026-05-06 22:02 33.62953 -84.17726 3971 ft 207 kts 294°
2026-05-06 22:02 33.63801 -84.19123 4086 ft 199 kts 297°
2026-05-06 22:02 33.64389 -84.20594 3909 ft 188 kts 287°
2026-05-06 22:03 33.64726 -84.22027 3918 ft 174 kts 273°
2026-05-06 22:03 33.64849 -84.23492 3756 ft 178 kts 269°
2026-05-06 22:03 33.64911 -84.24977 3587 ft 168 kts 266°
2026-05-06 22:03 33.64934 -84.26336 3334 ft 158 kts 265°
2026-05-06 22:04 33.64944 -84.27628 3103 ft 151 kts 265°
2026-05-06 22:04 33.64951 -84.28871 2886 ft 144 kts 265°
2026-05-06 22:04 33.64949 -84.30063 2694 ft 143 kts 264°
2026-05-06 22:04 33.64950 -84.31242 2494 ft 135 kts 265°
2026-05-06 22:05 33.64951 -84.32334 2331 ft 126 kts 264°
2026-05-06 22:05 33.64957 -84.33348 2154 ft 118 kts 263°
2026-05-06 22:05 33.64955 -84.34321 2018 ft 117 kts 263°
2026-05-06 22:05 33.64945 -84.35473 1927 ft 156 kts 264°
2026-05-06 22:06 33.64959 -84.36697 1695 ft 135 kts 265°
2026-05-06 22:06 33.64960 -84.37794 1499 ft 125 kts 264°
2026-05-06 22:06 33.64954 -84.38821 1351 ft 125 kts 262°
2026-05-06 22:06 33.64951 -84.39920 1209 ft 134 kts 266°
2026-05-06 22:07 33.64962 -84.41013 1028 ft 119 kts 264°
2026-05-06 22:07 33.64878 -84.41846 973 ft 74 kts 302°
2026-05-06 22:07 33.64996 -84.42214 978 ft 7 kts 313°
2026-05-06 22:07 33.65044 -84.42229 979 ft 15 kts
2026-05-06 22:08 33.65105 -84.42226 979 ft 8 kts 359°
2026-05-06 22:08 33.65152 -84.42263 979 ft 9 kts 299°
2026-05-06 22:08 33.65174 -84.42337 981 ft 11 kts 272°
2026-05-06 22:08 33.65191 -84.42416 983 ft 7 kts 306°
2026-05-06 22:09 33.65217 -84.42440 983 ft 3 kts 26°
2026-05-06 22:09 33.65221 -84.42432 983 ft 1 kts 89°